Location: Unspecified
(0.0000°N, 0.0000°E)
Time: 23:22:29
(UTC+00:00)

Tiros 1 - All Passes

Search period start: 28 May 2022 00:00
Search period end: 07 June 2022 00:00
Orbit: 629 x 663 km, 48.4° (Epoch: 28 May)

Date Brightness Start Highest point End Pass type
(mag) Time Alt. Az. Time Alt. Az. Time Alt. Az.
28 May - 08:40:04 10° NW 08:44:50 84° NE 08:49:39 10° SE daylight
28 May - 19:13:57 10° SSE 19:15:44 12° SE 19:17:29 10° ESE visible
28 May - 20:53:17 10° SW 20:57:47 51° NW 21:02:15 10° NNE night (unlit)
29 May - 07:24:49 10° N 07:28:30 22° NE 07:32:12 10° ESE daylight
29 May - 09:06:23 10° WNW 09:10:31 29° SW 09:14:41 10° S daylight
29 May - 19:37:09 10° SSW 19:41:29 38° SE 19:45:46 10° ENE visible
29 May - 21:20:41 10° W 21:23:29 16° NW 21:26:16 10° NNW night (unlit)
30 May - 07:49:27 10° NNW 07:54:10 73° NE 07:58:57 10° SE daylight
30 May - 18:24:21 10° SE 18:25:04 10° SE 18:25:46 10° ESE visible
30 May - 20:02:34 10° SW 20:07:09 60° NW 20:11:41 10° NNE visible
31 May - 06:34:26 10° N 06:37:50 19° NE 06:41:15 10° E daylight
31 May - 08:15:34 10° WNW 08:19:51 33° SW 08:24:10 10° SSE daylight
31 May - 18:46:38 10° SSW 18:50:50 33° SE 18:55:00 10° ENE visible
31 May - 20:29:39 10° W 20:32:49 18° NW 20:35:59 10° N visible
01 Jun - 06:58:50 10° NNW 07:03:31 63° NE 07:08:15 10° SE daylight
01 Jun - 08:44:36 10° WSW 08:45:37 11° SW 08:46:39 10° SW daylight
01 Jun - 19:11:51 10° SW 19:16:30 70° NW 19:21:05 10° NNE visible
02 Jun - 05:44:07 10° N 05:47:10 17° NE 05:50:13 10° E daylight
02 Jun - 07:24:46 10° WNW 07:29:10 38° SW 07:33:38 10° SSE daylight
02 Jun - 17:56:07 10° S 18:00:11 29° SE 18:04:12 10° ENE daylight
02 Jun - 19:38:41 10° W 19:42:10 21° NW 19:45:37 10° N visible
03 Jun - 06:08:14 10° NNW 06:12:51 54° NE 06:17:30 10° SE daylight
03 Jun - 07:52:59 10° WSW 07:54:56 12° SW 07:56:53 10° SSW daylight
03 Jun - 18:21:10 10° SW 18:25:51 82° NW 18:30:28 10° NE visible
04 Jun - 04:53:53 10° NNE 04:56:29 15° NE 04:59:07 10° E visible
04 Jun - 06:34:00 10° WNW 06:38:30 44° SW 06:43:04 10° SSE daylight
04 Jun - 17:05:38 10° S 17:09:31 25° SE 17:13:21 10° ENE daylight
04 Jun - 18:47:45 10° WSW 18:51:30 24° NW 18:55:13 10° N visible
05 Jun - 05:17:40 10° NNW 05:22:11 46° NE 05:26:45 10° SE visible
05 Jun - 07:01:45 10° W 07:04:14 14° SW 07:06:46 10° SSW daylight
05 Jun - 17:30:30 10° SW 17:35:12 87° SE 17:39:50 10° NE daylight
06 Jun - 04:03:46 10° NNE 04:05:48 13° NE 04:07:51 10° ENE visible
06 Jun - 05:43:15 10° NW 05:47:50 51° SW 05:52:28 10° SSE daylight
06 Jun - 16:15:10 10° S 16:18:51 22° SE 16:22:29 10° ENE daylight
06 Jun - 17:56:53 10° WSW 18:00:51 27° NW 18:04:47 10° N daylight
